sat.trackr.live / text

‹ back to catalog

STARLINK-36412

NORAD 67518 · 2026-012AB

PAYLOAD ACTIVE UNKNOWN

§ Identity

Operator
Country
US
Launch date
2026-01-18
Launch site
AFETR
Launch vehicle
Mass (kg)
RCS (m²)

Purposes: comms

External: N2YO · Heavens-Above · Gunter

§ Orbital elements

Epoch: 2026-05-24T23:38:50.885088Z

Period
94.27 min
Inclination
43.0056°
Eccentricity
0.0001937
Mean motion
15.27584458 rev/d
Perigee alt
481.7 km
Apogee alt
484.4 km
Semi-major
6,861.2 km
B*
2.8762e-4
RAAN
243.2232°
Arg perigee
269.8096°
Mean anomaly
90.2534°
Rev number
1,943

§ Raw data

STARLINK-364121 67518U 26012AB  26144.98531117  .00007662  00000+0  28762-3 0  99982 67518  43.0056 243.2232 0001937 269.8096  90.2534 15.27584458 19434

JSON: /api/v1/satellites/67518 · /tle

For live sub-satellite position, see the globe view (requires WebGL).

§ Visibility from observer

Set your observer location to see the next 7 days of passes ≥ 10°. The values pass through the URL so the page stays shareable.

No JS? Fill the form by hand. The geolocation button needs JavaScript.